Regional Weather Roundup
Issued by NWS Cleveland, OH

Home | Current Version | Previous Version | Text Only | Print | Product List | Glossary Off
Versions: 1 2 3 4 5 6 7 8 9 10 11 12 13 14 15 16 17 18 19 20 21 22 23 24 25 26 27 28 29 30 31 32 33 34 35 36 37 38 39 40 41 42 43 44 45 46 47 48 49 50

000
ASUS41 KCLE 300710
RWRCLE
OHIO REGIONAL WEATHER ROUNDUP
NATIONAL WEATHER SERVICE CLEVELAND, OH
300 AM EDT MON MAY 30 2016

NOTE: "FAIR" INDICATES FEW OR NO CLOUDS BELOW 12,000 FEET WITH NO
SIGNIFICANT WEATHER AND/OR OBSTRUCTIONS TO VISIBILITY.

OHZ001>008-015>018-024>027-034-035-043-044-300800-
   NORTHWEST OHIO

CITY           SKY/WX    TMP DP  RH WIND       PRES   REMARKS
DEFIANCE       CLEAR     61  55  81 SW3       30.01S
FINDLAY        CLEAR     65  55  70 CALM      30.00F
TOLEDO EXPRESS CLEAR     60  56  86 CALM      29.99F
TOLEDO EXEC    CLEAR     61  54  77 S5        29.99F
LIMA           CLEAR     64  58  80 CALM      30.02S
$$

OHZ009>014-019>023-028>033-038-089-300800-
   NORTHEAST OHIO

CITY           SKY/WX    TMP DP  RH WIND       PRES   REMARKS
CLE-HOPKINS    MOCLDY    65  62  90 SW5       30.01S
CLE-LAKEFRONT  PTCLDY    67  62  84 SW3       29.97S
CUY CO. ARPT   NOT AVBL
LORAIN-ELYRIA  CLOUDY    62  59  90 SW5       30.00F
ASHTABULA      CLEAR     63  61  93 SW5       29.98S
AKRON-CANTON   CLOUDY    64  61  90 S7        30.00F
WOOSTER        CLOUDY    63  60  90 CALM      30.01S
MANSFIELD      CLEAR     64  60  87 SW8       30.02S
YOUNGSTOWN     MOCLDY    65  61  87 S6        30.00S
$$

OHZ042-051>053-060>062-070>072-077>081-300800-
  SOUTHWEST OHIO

CITY           SKY/WX    TMP DP  RH WIND       PRES   REMARKS
CINC-COVINGTON MOCLDY    69  65  86 CALM      30.03S
CINC-LUNKEN    PTCLDY    66  65  96 CALM      30.03S
HAMILTON       MOCLDY    69  64  84 CALM      30.03S
DAYTON         PTCLDY    65  62  90 N5        30.03S
WRIGHT-PAT AFB CLEAR     64  64 100 CALM      30.02R
DAYTON GENERAL PTCLDY    67  62  84 S3        30.02S
WILMINGTON     PTCLDY    65  63  93 SW7       30.03S
$$

OHZ036-037-039>041-045>050-054>059-063>069-073>076-082>088-300800-
  CENTRAL AND SOUTHEAST OHIO

CITY           SKY/WX    TMP DP  RH WIND       PRES   REMARKS
COLUMBUS       MOCLDY    66  62  87 CALM      30.00F
OSU AIRPORT    CLEAR     65  61  87 SW3       30.01S
BOLTON FIELD   PTCLDY    63  62  97 SW5       30.02S
RICKENBACK AFB MOCLDY    64  62  94 SW5       30.00S
NEWARK         CLOUDY    66  61  84 S3        30.01S
MARION         CLEAR     65  60  84 W6        30.01F
LANCASTER      CLOUDY    66  62  87 CALM      30.01F
ZANESVILLE     CLOUDY    67  63  87 SW5       30.01S
NEW PHILLY     PTCLDY    65  62  90 SE5       30.00F FOG
$$




USA.gov is the U.S. government's official web portal to all federal, state and local government web resources and services.